Location: Unspecified
(0.0000°N, 0.0000°E)
Time: 14:42:24
(UTC+00:00)

STARLINK-1172 - Visible Passes

Search period start: 15 June 2025 00:00
Search period end: 25 June 2025 00:00
Orbit: 546 x 548 km, 53.1° (Epoch: 15 June)

Date Brightness Start Highest point End Pass type
(mag) Time Alt. Az. Time Alt. Az. Time Alt. Az.
15 Jun 5.6 18:54:58 10° NNE 18:57:04 14° NE 18:58:07 13° ENE visible
15 Jun 6.5 20:32:45 10° WNW 20:33:45 16° WNW 20:33:45 16° WNW visible
16 Jun 5.2 18:47:39 10° N 18:50:45 21° NE 18:52:41 15° E visible
16 Jun 6.4 20:27:02 10° WNW 20:28:19 15° W 20:28:19 15° W visible
17 Jun 4.6 18:40:44 10° N 18:44:23 31° NE 18:47:16 15° ESE visible
17 Jun 6.5 20:21:50 10° W 20:22:54 12° WSW 20:22:54 12° WSW visible
18 Jun 3.9 18:34:02 10° NNW 18:38:01 50° NE 18:41:52 11° SE visible
19 Jun 3.6 18:27:29 10° NNW 18:31:36 82° ENE 18:35:43 10° SE visible
20 Jun 4.1 18:21:07 10° NW 18:25:10 61° SW 18:29:14 10° SSE visible
22 Jun 6.3 04:34:10 10° SSE 04:36:13 13° SE 04:38:15 10° E visible
23 Jun 5.8 04:27:32 14° SSE 04:29:45 20° SE 04:32:49 10° ENE visible
24 Jun 5.1 04:22:01 26° SSE 04:23:14 31° SE 04:26:52 10° ENE visible
